Location: Wells
(51.2093°N, 2.6446°W)
Time: 21:13:45
(UTC+01:00)

CUTE-I - Pass Details

Date: 19 March 2026
Orbit: 804 x 818 km, 98.7° (Epoch: 11 April)

Event Time Altitude Azimuth Distance (km) Brightness Sun altitude
Rises 05:01:19 0° 30° (NNE) 3,330 ? -12.4°
Reaches altitude 10° 05:05:10 10° 59° (ENE) 2,393 ? -11.8°
Maximum altitude 05:07:28 13° 85° (E) 2,197 ? -11.4°
Drops below altitude 10° 05:09:46 10° 111° (ESE) 2,388 ? -11.1°
Sets 05:13:34 0° 139° (SE) 3,315 ? -10.5°
